sat.trackr.live / text

‹ back to catalog

SHIYAN-6 02 (SY-6 02)

NORAD 45859 · 2020-043A

PAYLOAD ACTIVE UNKNOWN

§ Identity

Operator
Country
PRC
Launch date
2020-07-04
Launch site
JSC
Launch vehicle
Mass (kg)
RCS (m²)

External: N2YO · Heavens-Above · Gunter

§ Orbital elements

Epoch: 2026-05-25T00:16:57.339264Z

Period
98.57 min
Inclination
98.1848°
Eccentricity
0.0127653
Mean motion
14.60918706 rev/d
Perigee alt
600.0 km
Apogee alt
780.4 km
Semi-major
7,068.3 km
B*
4.7328e-5
RAAN
156.5698°
Arg perigee
299.3351°
Mean anomaly
59.5146°
Rev number
31,347

§ Raw data

SHIYAN-6 02 (SY-6 02)1 45859U 20043A   26145.01177476  .00000204  00000+0  47328-4 0  99942 45859  98.1848 156.5698 0127653 299.3351  59.5146 14.60918706313477

JSON: /api/v1/satellites/45859 · /tle

For live sub-satellite position, see the globe view (requires WebGL).

§ Visibility from observer

Set your observer location to see the next 7 days of passes ≥ 10°. The values pass through the URL so the page stays shareable.

No JS? Fill the form by hand. The geolocation button needs JavaScript.